Météo par heure à Alkino

Ce jour, 22 Octobre, Jeudi

Heure Température Précipitation Vent Pression Humidité
00:00 -4°C° 0 mm 6 m/s 744 mmHg 83%
01:00 -4°C° 0 mm 5 m/s 745 mmHg 84%
02:00 -4°C° 0 mm 5 m/s 745 mmHg 84%
03:00 -5°C° 0 mm 5 m/s 745 mmHg 85%
04:00 -4°C° 0 mm 5 m/s 745 mmHg 83%
05:00 -4°C° 0 mm 5 m/s 745 mmHg 81%
06:00 -4°C° 0 mm 5 m/s 746 mmHg 79%
07:00 -4°C° 0 mm 5 m/s 746 mmHg 78%
08:00 -4°C° 0 mm 5 m/s 746 mmHg 77%
09:00 -4°C° 0 mm 5 m/s 746 mmHg 77%
10:00 -2°C° 0 mm 5 m/s 746 mmHg 74%
11:00 -2°C° 0 mm 5 m/s 747 mmHg 72%
12:00 -2°C° 0 mm 5 m/s 747 mmHg 70%
13:00 -2°C° 0 mm 5 m/s 747 mmHg 70%
14:00 -2°C° 0 mm 5 m/s 747 mmHg 71%
15:00 -2°C° 0 mm 5 m/s 748 mmHg 71%
16:00 -2°C° 0 mm 4 m/s 748 mmHg 74%
17:00 -3°C° 0 mm 4 m/s 748 mmHg 77%
18:00 -4°C° 0 mm 3 m/s 748 mmHg 80%
19:00 -4°C° 0 mm 3 m/s 748 mmHg 81%
20:00 -4°C° 0 mm 3 m/s 748 mmHg 82%
21:00 -3°C° 0 mm 2 m/s 748 mmHg 82%
22:00 -3°C° 0 mm 2 m/s 748 mmHg 82%
23:00 -4°C° 0 mm 2 m/s 748 mmHg 82%

Demain, 23 Octobre, Vendredi

Heure Température Précipitation Vent Pression Humidité
00:00 -2°C° 0 mm 1 m/s 748 mmHg 82%
01:00 -2°C° 0 mm 1 m/s 748 mmHg 81%
02:00 -2°C° 0 mm 1 m/s 748 mmHg 80%
03:00 -2°C° 0 mm 1 m/s 748 mmHg 79%
04:00 -1°C° 0 mm 1 m/s 747 mmHg 79%
05:00 -3°C° 0 mm 2 m/s 747 mmHg 80%
06:00 -3°C° 0 mm 2 m/s 746 mmHg 80%
07:00 -2°C° 0 mm 3 m/s 746 mmHg 78%
08:00 -3°C° 0 mm 4 m/s 746 mmHg 76%
09:00 -2°C° 0 mm 4 m/s 745 mmHg 73%
10:00 -2°C° 0 mm 5 m/s 745 mmHg 75%
11:00 -1°C° 0 mm 5 m/s 744 mmHg 76%
12:00 -1°C° 0 mm 5 m/s 744 mmHg 78%
13:00 -1°C° 0.2 mm 5 m/s 743 mmHg 84%
14:00 -2°C° 0.2 mm 6 m/s 743 mmHg 90%
15:00 -3°C° 0.2 mm 6 m/s 742 mmHg 96%
16:00 -1°C° 0.4 mm 5 m/s 741 mmHg 96%
17:00 -1°C° 0.4 mm 5 m/s 741 mmHg 97%
18:00 0°C° 0.4 mm 5 m/s 740 mmHg 97%
19:00 0°C° 0.5 mm 5 m/s 739 mmHg 97%
20:00 +1°C° 0.5 mm 5 m/s 739 mmHg 97%
21:00 +1°C° 0.5 mm 5 m/s 738 mmHg 97%
22:00 +1°C° 0.4 mm 4 m/s 738 mmHg 97%
23:00 +1°C° 0.4 mm 4 m/s 737 mmHg 98%

Après-demain, 24 Octobre, Samedi

Heure Température Précipitation Vent Pression Humidité
00:00 +3°C° 0.4 mm 4 m/s 737 mmHg 98%
01:00 +3°C° 0.1 mm 4 m/s 736 mmHg 98%
02:00 +4°C° 0.1 mm 3 m/s 736 mmHg 98%
03:00 +4°C° 0.1 mm 3 m/s 736 mmHg 97%
04:00 +5°C° 0.6 mm 3 m/s 736 mmHg 98%
05:00 +5°C° 0.6 mm 3 m/s 735 mmHg 98%
06:00 +5°C° 0.6 mm 3 m/s 735 mmHg 98%
07:00 +5°C° 1.1 mm 3 m/s 734 mmHg 98%
08:00 +6°C° 1.1 mm 2 m/s 734 mmHg 98%
09:00 +6°C° 1.1 mm 2 m/s 734 mmHg 98%
10:00 +5°C° 0.3 mm 3 m/s 734 mmHg 98%
11:00 +5°C° 0.3 mm 3 m/s 735 mmHg 97%
12:00 +7°C° 0.3 mm 3 m/s 735 mmHg 97%
13:00 +7°C° 0 mm 3 m/s 735 mmHg 95%
14:00 +7°C° 0 mm 3 m/s 736 mmHg 93%
15:00 +8°C° 0 mm 3 m/s 737 mmHg 92%
16:00 +7°C° 0 mm 3 m/s 737 mmHg 92%
17:00 +7°C° 0 mm 3 m/s 738 mmHg 93%
18:00 +7°C° 0 mm 2 m/s 738 mmHg 94%
19:00 +7°C° 0 mm 2 m/s 739 mmHg 94%
20:00 +7°C° 0 mm 2 m/s 739 mmHg 94%
21:00 +7°C° 0 mm 2 m/s 740 mmHg 95%
22:00 +7°C° 0.1 mm 2 m/s 740 mmHg 95%
23:00 +7°C° 0.1 mm 3 m/s 740 mmHg 96%

, 25 Octobre, Dimanche

Heure Température Précipitation Vent Pression Humidité
00:00 +7°C° 0.1 mm 3 m/s 740 mmHg 96%
01:00 +5°C° 0 mm 3 m/s 740 mmHg 96%
02:00 +5°C° 0 mm 3 m/s 741 mmHg 96%
03:00 +4°C° 0 mm 3 m/s 741 mmHg 96%
04:00 +4°C° 0 mm 3 m/s 741 mmHg 95%
05:00 +4°C° 0 mm 3 m/s 741 mmHg 95%
06:00 +3°C° 0 mm 3 m/s 741 mmHg 94%
07:00 +3°C° 0 mm 3 m/s 741 mmHg 90%
08:00 +3°C° 0 mm 3 m/s 741 mmHg 87%
09:00 +3°C° 0 mm 3 m/s 741 mmHg 83%
10:00 +4°C° 0 mm 3 m/s 741 mmHg 81%
11:00 +6°C° 0 mm 2 m/s 741 mmHg 79%
12:00 +6°C° 0 mm 2 m/s 741 mmHg 77%
13:00 +6°C° 0 mm 2 m/s 741 mmHg 77%
14:00 +7°C° 0 mm 1 m/s 741 mmHg 78%
15:00 +6°C° 0 mm 0 m/s 741 mmHg 79%
16:00 +6°C° 0 mm 0 m/s 741 mmHg 80%
17:00 +7°C° 0 mm 1 m/s 741 mmHg 82%
18:00 +6°C° 0 mm 1 m/s 740 mmHg 83%
19:00 +6°C° 0.2 mm 1 m/s 740 mmHg 86%
20:00 +5°C° 0.2 mm 2 m/s 740 mmHg 88%
21:00 +5°C° 0.2 mm 2 m/s 740 mmHg 90%
22:00 +4°C° 0.4 mm 3 m/s 740 mmHg 91%
23:00 +4°C° 0.4 mm 3 m/s 740 mmHg 93%

25 Octobre, Dimanche

Heure Température Précipitation Vent Pression Humidité
00:00 +7°C° 0.1 mm 3 m/s 740 mmHg 96%
01:00 +5°C° 0 mm 3 m/s 740 mmHg 96%
02:00 +5°C° 0 mm 3 m/s 741 mmHg 96%
03:00 +4°C° 0 mm 3 m/s 741 mmHg 96%
04:00 +4°C° 0 mm 3 m/s 741 mmHg 95%
05:00 +4°C° 0 mm 3 m/s 741 mmHg 95%
06:00 +3°C° 0 mm 3 m/s 741 mmHg 94%
07:00 +3°C° 0 mm 3 m/s 741 mmHg 90%
08:00 +3°C° 0 mm 3 m/s 741 mmHg 87%
09:00 +3°C° 0 mm 3 m/s 741 mmHg 83%
10:00 +4°C° 0 mm 3 m/s 741 mmHg 81%
11:00 +6°C° 0 mm 2 m/s 741 mmHg 79%
12:00 +6°C° 0 mm 2 m/s 741 mmHg 77%
13:00 +6°C° 0 mm 2 m/s 741 mmHg 77%
14:00 +7°C° 0 mm 1 m/s 741 mmHg 78%
15:00 +6°C° 0 mm 0 m/s 741 mmHg 79%
16:00 +6°C° 0 mm 0 m/s 741 mmHg 80%
17:00 +7°C° 0 mm 1 m/s 741 mmHg 82%
18:00 +6°C° 0 mm 1 m/s 740 mmHg 83%
19:00 +6°C° 0.2 mm 1 m/s 740 mmHg 86%
20:00 +5°C° 0.2 mm 2 m/s 740 mmHg 88%
21:00 +5°C° 0.2 mm 2 m/s 740 mmHg 90%
22:00 +4°C° 0.4 mm 3 m/s 740 mmHg 91%
23:00 +4°C° 0.4 mm 3 m/s 740 mmHg 93%

26 Octobre, Lundi

Heure Température Précipitation Vent Pression Humidité
00:00 +4°C° 0.4 mm 3 m/s 740 mmHg 94%
01:00 +4°C° 0.1 mm 4 m/s 740 mmHg 93%
02:00 +2°C° 0.1 mm 5 m/s 740 mmHg 92%
03:00 +2°C° 0.1 mm 5 m/s 740 mmHg 91%
04:00 +1°C° 0 mm 5 m/s 740 mmHg 88%
05:00 +1°C° 0 mm 6 m/s 741 mmHg 86%
06:00 -1°C° 0 mm 6 m/s 741 mmHg 83%
07:00 -1°C° 0 mm 6 m/s 741 mmHg 81%
08:00 -2°C° 0 mm 6 m/s 742 mmHg 78%
09:00 -2°C° 0 mm 7 m/s 742 mmHg 75%
10:00 -2°C° 0 mm 7 m/s 743 mmHg 74%
11:00 -1°C° 0 mm 7 m/s 743 mmHg 72%
12:00 -1°C° 0 mm 7 m/s 744 mmHg 70%
13:00 -1°C° 0 mm 7 m/s 744 mmHg 69%
14:00 -1°C° 0 mm 7 m/s 745 mmHg 69%
15:00 -1°C° 0 mm 7 m/s 745 mmHg 68%
16:00 -2°C° 0 mm 7 m/s 746 mmHg 72%
17:00 -3°C° 0 mm 6 m/s 746 mmHg 77%
18:00 -4°C° 0 mm 6 m/s 746 mmHg 81%
19:00 -4°C° 0 mm 6 m/s 747 mmHg 79%
20:00 -4°C° 0 mm 7 m/s 747 mmHg 77%
21:00 -4°C° 0 mm 7 m/s 747 mmHg 75%
22:00 -4°C° 0 mm 7 m/s 748 mmHg 74%
23:00 -4°C° 0 mm 7 m/s 748 mmHg 74%

27 Octobre, Mardi

Heure Température Précipitation Vent Pression Humidité
00:00 -4°C° 0 mm 7 m/s 748 mmHg 74%
01:00 -4°C° 0 mm 6 m/s 749 mmHg 75%
02:00 -5°C° 0 mm 6 m/s 749 mmHg 77%
03:00 -5°C° 0 mm 6 m/s 749 mmHg 79%
04:00 -5°C° 0 mm 6 m/s 750 mmHg 79%
05:00 -5°C° 0 mm 6 m/s 750 mmHg 79%
06:00 -6°C° 0 mm 6 m/s 751 mmHg 80%
07:00 -5°C° 0 mm 6 m/s 751 mmHg 77%
08:00 -5°C° 0 mm 6 m/s 751 mmHg 75%
09:00 -4°C° 0 mm 6 m/s 752 mmHg 73%
10:00 -3°C° 0 mm 6 m/s 752 mmHg 69%
11:00 -1°C° 0 mm 5 m/s 752 mmHg 66%
12:00 0°C° 0 mm 5 m/s 753 mmHg 63%
13:00 0°C° 0 mm 5 m/s 753 mmHg 64%
14:00 0°C° 0 mm 4 m/s 753 mmHg 65%
15:00 0°C° 0 mm 4 m/s 753 mmHg 66%
16:00 -1°C° 0 mm 4 m/s 754 mmHg 70%
17:00 -1°C° 0 mm 3 m/s 754 mmHg 75%
18:00 -2°C° 0 mm 3 m/s 754 mmHg 80%
19:00 -2°C° 0 mm 3 m/s 754 mmHg 80%
20:00 -2°C° 0 mm 2 m/s 755 mmHg 80%
21:00 -2°C° 0 mm 2 m/s 755 mmHg 81%
22:00 -2°C° 0 mm 2 m/s 755 mmHg 80%
23:00 -2°C° 0 mm 2 m/s 755 mmHg 79%
Voir plus

Nous avons besoin de votre consentement

Meteoprog et ses fournisseurs de services peuvent stocker et accéder à des données personnelles telles que des cookies, des identifiants d'appareils ou d'autres technologies similaires sur votre appareil et traiter ces données pour personnaliser le contenu et les publicités, ainsi que pour fournir des fonctionnalités de médias sociaux et analyser le trafic.

  • Stocker et/ou accéder à des informations sur votre appareil

    Des cookies, des identifiants d'appareils ou d'autres informations peuvent être stockés ou accessibles sur votre appareil aux fins indiquées ci-dessus.

  • Annonces et contenus personnalisés, mesure des annonces et des contenus, connaissance de l'audience et développement de produits

    Les annonces et le contenu peuvent être personnalisés en fonction d'un profil. D'autres données peuvent être ajoutées pour mieux personnaliser les annonces et le contenu. Les performances des publicités et du contenu peuvent être mesurées. Il est possible d'obtenir des informations sur le public qui a vu les publicités et le contenu. Ces données peuvent être utilisées pour développer ou améliorer l'expérience de l'utilisateur, les systèmes et les logiciels.

En cliquant sur "J'accepte", vous autorisez l'utilisation de cookies, des identifiants d'appareils, des balises web ou d'autres technologies similaires. Vos paramètres peuvent être modifiés dans le navigateur de votre appareil.

Dans certains cas, des intérêts légitimes peuvent être invoqués plutôt qu'un consentement. Vous pouvez en savoir plus à ce sujet dans notre Politique de confidentialité et de cookies.